Location: Ellerstadt
(49.4644°N, 8.2615°E)
Time: 09:50:54
(UTC+00:00)

Cosmos 1844 Rocket - Pass Details

Date: 03 March 2021
Orbit: 826 x 843 km, 71.0° (Epoch: 13 April)

Event Time Altitude Azimuth Distance (km) Brightness Sun altitude
Rises 18:21:18 0° 331° (NNW) 3,377 6.3 -11.9°
Reaches altitude 10° 18:23:45 10° 333° (NNW) 2,439 5.5 -12.3°
Maximum altitude 18:29:21 77° 60° (ENE) 852 2.6 -13.2°
Drops below altitude 10° 18:34:55 10° 147° (SSE) 2,425 4.7 -14.1°
Enters shadow 18:36:01 - 148° (SSE) 2,842 5.1 -14.2°
